FW1999 Weather Reports


time (UTC)temp
C
wind
direction
speed
KPH
gust
KPH
rain 1hr
cm
rain 24hr
cm
rain mn
cm
humidity
%
barometer
mb
20260504195130 22 79 9.7 20.9 0.00 0.00 0.00 34 1010.0
20260504194855 22 84 8.0 22.5 0.00 0.00 0.00 35 1009.9
20260504194352 22 56 6.4 22.5 0.00 0.00 0.00 37 1010.0
20260504193625 22 80 8.0 19.3 0.00 0.00 0.00 37 1010.1
20260504193109 22 67 9.7 25.7 0.00 0.00 0.00 38 1010.0
20260504192608 21 51 9.7 25.7 0.00 0.00 0.00 36 1010.3
20260504192111 21 80 8.0 22.5 0.00 0.00 0.00 38 1010.2
20260504191543 21 85 8.0 20.9 0.00 0.00 0.00 37 1010.2
20260504191026 21 93 8.0 20.9 0.00 0.00 0.00 34 1010.3
20260504190526 21 87 8.0 17.7 0.00 0.00 0.00 36 1010.6
20260504190027 22 45 8.0 20.9 0.00 0.00 0.00 38 1010.6
20260504185458 21 79 9.7 20.9 0.00 0.00 0.00 38 1010.7
20260504184931 21 70 9.7 29.0 0.00 0.00 0.00 38 1010.7
20260504184417 21 69 9.7 29.0 0.00 0.00 0.00 37 1010.7
20260504184145 21 70 9.7 22.5 0.00 0.00 0.00 36 1010.8
20260504183419 21 37 9.7 22.5 0.00 0.00 0.00 35 1010.8
20260504183124 21 35 9.7 19.3 0.00 0.00 0.00 38 1011.0
20260504182353 21 38 8.0 17.7 0.00 0.00 0.00 36 1011.0
20260504181851 21 88 11.3 29.0 0.00 0.00 0.00 37 1011.1
20260504181346 21 66 12.9 29.0 0.00 0.00 0.00 37 1011.1
20260504180831 21 81 9.7 25.7 0.00 0.00 0.00 37 1011.1
20260504180322 21 72 9.7 16.1 0.00 0.00 0.00 40 1011.2
20260504175805 21 67 9.7 22.5 0.00 0.00 0.00 36 1011.4
20260504175307 21 74 9.7 22.5 0.00 0.00 0.00 39 1011.3
20260504174802 20 56 11.3 22.5 0.00 0.00 0.00 38 1011.4
20260504174233 21 58 9.7 22.5 0.00 0.00 0.00 38 1011.5
20260504173724 21 98 8.0 20.9 0.00 0.00 0.00 36 1011.4
20260504173229 20 43 9.7 24.1 0.00 0.00 0.00 38 1011.5
20260504172713 20 25 11.3 24.1 0.00 0.00 0.00 40 1011.5
20260504172211 20 29 9.7 22.5 0.00 0.00 0.00 40 1011.5
20260504171651 20 60 11.3 25.7 0.00 0.00 0.00 38 1011.7
20260504171148 20 30 11.3 25.7 0.00 0.00 0.00 36 1011.8
20260504170646 20 29 9.7 19.3 0.00 0.00 0.00 39 1011.8
20260504170411 20 47 8.0 20.9 0.00 0.00 0.00 38 1011.7
20260504150656 18 58 11.3 19.3 0.00 0.00 0.00 42 1013.3
20260504150155 17 84 8.0 19.3 0.00 0.00 0.00 42 1013.3
20260504140940 16 96 9.7 22.5 0.00 0.00 0.00 51 1013.6
20260504140700 16 67 9.7 22.5 0.00 0.00 0.00 51 1013.6
20260504130215 14 88 6.4 17.7 0.00 0.00 0.00 60 1014.0
20260504120237 11 54 8.0 19.3 0.00 0.00 0.00 66 1014.4
20260504110255 8 46 3.2 8.0 0.00 0.00 0.00 67 1014.7
20260504100111 7 54 1.6 8.0 0.00 0.00 0.00 60 1014.3
20260504081738 7 31 3.2 6.4 0.00 0.00 0.00 59 1014.2
20260504081503 7 63 3.2 6.4 0.00 0.00 0.00 59 1014.2
20260504080732 7 53 1.6 6.4 0.00 0.00 0.00 58 1014.2
20260504080206 7 80 1.6 4.8 0.00 0.00 0.00 58 1014.2
20260504050626 8 88 3.2 8.0 0.00 0.00 0.00 56 1014.1
20260504050123 8 66 3.2 6.4 0.00 0.00 0.00 56 1014.1
20260504045554 8 43 3.2 6.4 0.00 0.00 0.00 56 1014.1
20260504045036 8 58 1.6 6.4 0.00 0.00 0.00 56 1014.1
20260504044522 8 75 1.6 6.4 0.00 0.00 0.00 55 1014.0
20260504043959 8 77 3.2 6.4 0.00 0.00 0.00 55 1014.0
20260504043500 8 73 1.6 6.4 0.00 0.00 0.00 55 1014.0
20260504042949 8 52 1.6 6.4 0.00 0.00 0.00 55 1014.1
20260504042444 8 81 3.2 4.8 0.00 0.00 0.00 54 1013.9
20260504041919 8 79 1.6 6.4 0.00 0.00 0.00 54 1013.8
20260504041417 8 67 3.2 6.4 0.00 0.00 0.00 54 1013.7
20260504040848 8 78 3.2 8.0 0.00 0.00 0.00 54 1013.7
20260504040318 8 70 3.2 8.0 0.00 0.00 0.00 54 1013.7
20260504035821 9 70 3.2 8.0 0.00 0.00 0.00 54 1013.7
20260504035531 9 75 3.2 8.0 0.00 0.00 0.00 53 1013.6
20260504034802 9 63 3.2 9.7 0.00 0.00 0.00 53 1013.6
20260504034240 9 51 3.2 9.7 0.00 0.00 0.00 53 1013.5
20260504033649 9 56 3.2 9.7 0.00 0.00 0.00 52 1013.5
20260504033129 9 77 3.2 8.0 0.00 0.00 0.00 52 1013.5
20260504032631 10 73 3.2 6.4 0.00 0.00 0.00 51 1013.5
20260504032333 10 62 3.2 8.0 0.00 0.00 0.00 51 1013.4
20260504031557 10 58 3.2 8.0 0.00 0.00 0.00 51 1013.5
20260504031045 10 84 3.2 8.0 0.00 0.00 0.00 51 1013.4
20260504030520 10 58 3.2 8.0 0.00 0.00 0.00 50 1013.4
20260504030020 10 94 3.2 6.4 0.00 0.00 0.00 51 1013.4
20260504025457 10 82 3.2 8.0 0.00 0.00 0.00 50 1013.3
20260504024949 10 49 3.2 8.0 0.00 0.00 0.00 51 1013.4
20260504024447 10 71 3.2 8.0 0.00 0.00 0.00 50 1013.3
20260504023933 10 64 3.2 6.4 0.00 0.00 0.00 49 1013.4
20260504023436 10 56 3.2 4.8 0.00 0.00 0.00 48 1013.4
20260504023146 10 79 1.6 6.4 0.00 0.00 0.00 48 1013.5
20260504022415 10 78 3.2 6.4 0.00 0.00 0.00 48 1013.4
20260504021901 10 80 3.2 6.4 0.00 0.00 0.00 48 1013.4
20260504021333 10 65 1.6 6.4 0.00 0.00 0.00 47 1013.4
20260504020821 10 79 3.2 6.4 0.00 0.00 0.00 47 1013.3
20260504020317 11 86 3.2 8.0 0.00 0.00 0.00 47 1013.3
20260504015818 11 85 3.2 8.0 0.00 0.00 0.00 47 1013.3
20260504015309 11 70 3.2 6.4 0.00 0.00 0.00 47 1013.3
20260504015045 11 55 3.2 6.4 0.00 0.00 0.00 47 1013.3
20260504014254 11 86 3.2 8.0 0.00 0.00 0.00 46 1013.2
20260504013750 11 80 3.2 8.0 0.00 0.00 0.00 46 1013.1
20260504013249 11 49 3.2 6.4 0.00 0.00 0.00 45 1013.1
20260504012751 11 94 3.2 6.4 0.00 0.00 0.00 45 1013.0
20260504012218 11 84 3.2 6.4 0.00 0.00 0.00 45 1013.0
20260504011716 11 79 3.2 6.4 0.00 0.00 0.00 44 1012.8
20260504011218 11 88 3.2 4.8 0.00 0.00 0.00 44 1012.8
20260504010651 12 85 3.2 6.4 0.00 0.00 0.00 44 1012.6
20260504010127 12 87 3.2 9.7 0.00 0.00 0.00 43 1012.6
20260504005605 12 82 3.2 9.7 0.00 0.00 0.00 42 1012.6
20260504005311 12 79 3.2 6.4 0.00 0.00 0.00 43 1012.5
20260504004524 12 80 3.2 8.0 0.00 0.00 0.00 42 1012.5
20260504004025 12 84 3.2 8.0 0.00 0.00 0.00 41 1012.5
20260504003458 12 82 3.2 6.4 0.00 0.00 0.00 42 1012.5
20260504002955 12 87 3.2 4.8 0.00 0.00 0.00 41 1012.3
20260504002449 12 87 1.6 4.8 0.00 0.00 0.00 41 1012.3
20260504001930 12 83 1.6 4.8 0.00 0.00 0.00 40 1012.2
20260504001404 12 83 1.6 4.8 0.00 0.00 0.00 40 1012.2
20260504001359 13 89 3.2 4.8 0.00 0.00 0.00 40 1012.0
20260504000331 13 88 3.2 6.4 0.00 0.00 0.00 39 1011.9
20260503235831 13 82 3.2 6.4 0.00 0.00 0.00 39 1011.9
20260503235600 13 86 3.2 6.4 0.00 0.00 0.00 38 1011.9
20260503234829 13 83 3.2 6.4 0.00 0.00 0.00 38 1011.8
20260503234316 13 76 3.2 6.4 0.00 0.00 0.00 38 1011.8
20260503233800 14 92 4.8 6.4 0.00 0.00 0.00 37 1011.8
20260503233302 14 83 4.8 8.0 0.00 0.00 0.00 36 1011.7
20260503232740 14 90 4.8 8.0 0.00 0.00 0.00 35 1011.7
20260503232444 14 79 4.8 8.0 0.00 0.00 0.00 35 1011.6
20260503231646 14 79 4.8 9.7 0.00 0.00 0.00 35 1011.7
20260503231122 15 82 4.8 9.7 0.00 0.00 0.00 34 1011.6
20260503230555 15 86 4.8 9.7 0.00 0.00 0.00 36 1011.6
20260503230308 15 79 3.2 9.7 0.00 0.00 0.00 34 1011.5
20260503225536 15 81 3.2 9.7 0.00 0.00 0.00 35 1011.5
20260503225017 15 83 4.8 14.5 0.00 0.00 0.00 35 1011.6
20260503224451 15 65 4.8 14.5 0.00 0.00 0.00 34 1011.6
20260503223915 15 71 6.4 16.1 0.00 0.00 0.00 34 1011.5
20260503223417 15 86 6.4 16.1 0.00 0.00 0.00 32 1011.6
20260503222916 15 85 4.8 9.7 0.00 0.00 0.00 33 1011.5
20260503222414 15 86 4.8 11.3 0.00 0.00 0.00 33 1011.5
20260503221916 15 101 4.8 11.3 0.00 0.00 0.00 34 1011.6
20260503221415 15 91 6.4 17.7 0.00 0.00 0.00 33 1011.6
20260503220850 15 78 6.4 17.7 0.00 0.00 0.00 32 1011.5
20260503220320 15 84 4.8 12.9 0.00 0.00 0.00 32 1011.4
20260503215816 15 81 3.2 12.9 0.00 0.00 0.00 31 1011.5
20260503215524 16 96 3.2 11.3 0.00 0.00 0.00 31 1011.5
20260503214750 15 132 4.8 16.1 0.00 0.00 0.00 33 1011.5
20260503214250 16 106 3.2 16.1 0.00 0.00 0.00 31 1011.5
20260503213734 16 113 3.2 9.7 0.00 0.00 0.00 33 1011.4
20260503213506 16 88 1.6 9.7 0.00 0.00 0.00 34 1011.4
20260503212718 16 101 3.2 12.9 0.00 0.00 0.00 33 1011.4
20260503212206 15 72 3.2 12.9 0.00 0.00 0.00 35 1011.5
20260503211709 15 94 3.2 12.9 0.00 0.00 0.00 33 1011.4
20260503211151 15 75 4.8 12.9 0.00 0.00 0.00 33 1011.5
20260503210645 15 85 6.4 16.1 0.00 0.00 0.00 34 1011.6
20260503210418 15 21 6.4 19.3 0.00 0.00 0.00 34 1011.7
20260503205644 15 72 4.8 19.3 0.00 0.00 0.00 33 1011.5
20260503205116 15 45 3.2 11.3 0.00 0.00 0.00 34 1011.6
20260503204846 15 143 3.2 11.3 0.00 0.00 0.00 34 1011.5
20260503204116 15 105 4.8 11.3 0.00 0.00 0.00 34 1011.6
20260503203613 15 91 6.4 19.3 0.00 0.00 0.00 37 1011.6
20260503203046 15 72 8.0 19.3 0.00 0.00 0.00 32 1011.6
20260503202547 15 84 6.4 14.5 0.00 0.00 0.00 35 1011.5
20260503202050 15 66 4.8 14.5 0.00 0.00 0.00 36 1011.6
20260503202046 15 106 6.4 14.5 0.00 0.00 0.00 35 1011.6
20260503201029 15 117 3.2 11.3 0.00 0.00 0.00 33 1011.7
20260503200530 15 78 3.2 9.7 0.00 0.00 0.00 35 1011.8
20260503200001 15 129 4.8 9.7 0.00 0.00 0.00 35 1011.7
20260503195459 15 101 4.8 9.7 0.00 0.00 0.00 33 1011.8